Torna al catalogo

OPS 4682 DEB

AttivoPO
NORAD 38390·DEBRIS·🇺🇸 United States

Lanciato Apr 3, 1965 da Vandenberg Space Force Base

Loading…

Prossimi Passaggi (prossime 24 ore)

TLE

AggiornatoSource: Space-Track

Epoca: Sep 14, 2026, 13:46 UTC

1 38390U 65027CT  26257.57365736  .00000401  00000-0  13473-2 0  9992
2 38390  90.2378   0.8621 0032113 180.1735 179.9380 12.97801019624294

Traccia OPS 4682 DEB in tempo reale con AllMySat

Download on the App Store